Flag for Ukraine Weather past 2 weeks in Luhansk, Ukraine

Now
84 °F

Passing clouds.


Feels Like: 82 °F
Forecast: 68 / 97 °F
Wind: 3 mph from North

Location: Rostov-Na-Donu

Current Time: Sep 4, 2015 at 8:15:12 PM

Latest Report: Sep 4, 2015 at 7:30 PM


Visibility: N/A

Pressure: 29.86 "Hg

Humidity: 33%

Dew point: 52 °F

Location of LuhanskLocation

Historic Weather in Luhansk — Graph

°F

Luhansk temperature yesterday

Maximum temperature yesterday: 91 °F (at 1:30 PM)
Minimum temperature yesterday: 70 °F (at 7:00 AM)
Average temperature yesterday: 81 °F

Past Weeks' High & Low Weather Summary

 TemperatureHumidityPressure
High95 °F (Sep 4, 2:00 PM)83% (Sep 2, 12:30 AM)30.18 "Hg (Sep 2, 12:30 AM)
Low55 °F (Aug 21, 4:00 AM)15% (Aug 29, 4:30 PM)29.80 "Hg (Sep 3, 4:00 PM)
Average73 °F40%30.02 "Hg
* Reported Aug 20 6:00 PM — Sep 4 6:30 PM, Luhansk, Weather by CustomWeather, © 2015

Note: Actual official high and low records may vary slightly from our data, if they occured in-between our weather recording intervals... More about our weather records

Advertising

Luhansk weather history for previous 24 hours

 ConditionsComfort  
Time TempWeatherWind HumidityBarometerVisibility
6:30 PM
Fri, Sep 4
88 °FPassing clouds.3 mph27%29.86 "HgN/A
6:00 PM90 °FPassing clouds.8 mph26%29.86 "HgN/A
5:30 PM93 °FPassing clouds.3 mph26%29.86 "HgN/A
5:00 PM93 °FPassing clouds.3 mph28%29.86 "HgN/A
4:30 PM95 °FPassing clouds.6 mph25%29.86 "HgN/A
4:00 PM95 °FPassing clouds.3 mph23%29.86 "HgN/A
3:30 PM95 °FPassing clouds.3 mph23%29.86 "HgN/A
3:00 PM95 °FPassing clouds.3 mph23%29.86 "HgN/A
2:30 PM95 °FPassing clouds.3 mph25%29.89 "HgN/A
2:00 PM95 °FPassing clouds.3 mph23%29.89 "HgN/A
1:00 PM93 °FPassing clouds.3 mph24%29.89 "HgN/A
12:30 PM93 °FPassing clouds.6 mph24%29.89 "HgN/A
12:00 PM91 °FSunny.1 mph34%29.89 "Hg10 mi
11:30 AM91 °FPassing clouds.3 mph34%29.89 "HgN/A
11:00 AM90 °FSunny.3 mph38%29.89 "Hg10 mi
10:30 AM88 °FPassing clouds.3 mph43%29.89 "HgN/A
10:00 AM88 °FPassing clouds.3 mph46%29.89 "HgN/A
9:30 AM86 °FPassing clouds.3 mph40%29.89 "HgN/A
9:00 AM84 °FSunny.6 mph43%29.89 "Hg10 mi
8:30 AM82 °FPassing clouds.3 mph48%29.86 "HgN/A
8:00 AM77 °FSunny.No wind61%29.86 "Hg10 mi
7:30 AM73 °FSunny.No wind74%29.86 "Hg10 mi
7:00 AM70 °FSunny.1 mph78%29.86 "Hg10 mi
6:30 AM70 °FClear.1 mph78%29.86 "Hg10 mi
6:00 AM70 °FClear.3 mph78%29.86 "Hg10 mi
5:30 AM70 °FClear.3 mph78%29.86 "HgN/A
5:00 AM70 °FClear.3 mph78%29.86 "HgN/A
4:30 AM70 °FClear.3 mph78%29.86 "HgN/A
4:00 AM70 °FClear.6 mph73%29.86 "HgN/A
3:30 AM73 °FClear.6 mph65%29.86 "HgN/A
3:00 AM73 °FClear.8 mph61%29.86 "HgN/A
2:30 AM75 °FClear.6 mph57%29.83 "HgN/A
2:00 AM75 °FClear.6 mph57%29.83 "HgN/A
1:30 AM73 °FClear.1 mph61%29.86 "HgN/A
12:00 AM75 °FClear.3 mph61%29.83 "HgN/A
11:30 PM
Thu, Sep 3
77 °FClear.6 mph57%29.83 "HgN/A
11:00 PM79 °FClear.8 mph51%29.83 "HgN/A
10:30 PM79 °FClear.8 mph48%29.83 "HgN/A
10:00 PM81 °FClear.8 mph45%29.83 "HgN/A
9:30 PM81 °FClear.8 mph45%29.83 "HgN/A
9:00 PM81 °FClear.8 mph42%29.83 "HgN/A
8:30 PM81 °FClear.8 mph42%29.83 "HgN/A
8:00 PM81 °FClear.8 mph42%29.83 "HgN/A
Weather by CustomWeather, © 2015

See weather overviewHow to use our weather pages